Location: Complexul Astronomic Baia Mare
(47.6577°N, 23.5639°E)
Time: 04:36:51
(UTC+03:00)

ISS - Pass Details

Date: 27 March 2017
Orbit: 400 x 409 km, 51.6° (Epoch: 24 April)

Event Time Altitude Azimuth Distance (km) Brightness Sun altitude
Rises 21:10:07 0° 208° (SSW) 2,303 0.1 -14.2°
Reaches altitude 10° 21:12:27 10° 193° (SSW) 1,451 -1.1 -14.5°
Enters shadow 21:14:13 20° 163° (SSE) 1,000 -2.2 -14.8°
